Change the Weather History Date:

Sunday, November 20, 2011

  Actual Average Record
Temperature  
Mean Temperature 17 °F 30 °F  
Max Temperature 28 °F 39 °F 62 °F (1989)
Min Temperature 6 °F 21 °F -2 °F (2014)
Degree Days  
Heating Degree Days 48 35  
Month to date heating degree days 555 591  
Since 1 July heating degree days 1179 1340  
Cooling Degree Days 0 0  
Month to date cooling degree days 0 0  
Year to date cooling degree days 767 593  
Moisture  
Dew Point 13 °F    
Average Humidity 85    
Maximum Humidity 96    
Minimum Humidity 74    
Precipitation  
Precipitation 0.00 in 0.06 in 1.25 in (1953)
Month to date precipitation 0.05 1.14  
Year to date precipitation 19.02  
Sea Level Pressure  
Sea Level Pressure 30.34 in    
Wind  
Wind Speed 6 mph (North)    
Max Wind Speed 18 mph    
Max Gust Speed 23 mph    
Visibility 10 miles    
Events      
T = Trace of Precipitation, MM = Missing Value Source: NWS Daily Summary

Daily Weather History Graph

Daily Weather History Graph

Search for Another Location

Airport or City:

Trip Planner

Search our weather history database for the weather conditions in past years. The results will help you decide how hot, cold, wet, or windy it might be!

Date:

Astronomy

Nov. 20, 2011 Rise Set
Actual Time 7:18 AM CST 4:50 PM CST
Civil Twilight 6:47 AM CST 5:21 PM CST
Nautical Twilight 6:12 AM CST 5:56 PM CST
Astronomical Twilight 5:38 AM CST 6:30 PM CST
Moon 1:39 AM CST (11/20) 1:47 PM CST (11/20)
Length of Visible Light 10h 34m
Length of Day
9h 31m
Waning Crescent, 27% of the Moon is Illuminated
Nov 20
Waning Crescent
Nov 25
New
Dec 2
First Quarter
Dec 10
Full
Dec 17
Last Quarter

Hourly Weather History & Observations

Time (CST) Temp. Windchill Dew Point Humidity Pressure Visibility Wind Dir Wind Speed Gust Speed Precip Events Conditions
12:52 AM 14.0 °F -0.8 °F 10.9 °F 88% 30.26 in 10.0 mi NW 13.8 mph - N/A   Clear
1:52 AM 15.1 °F 0.5 °F 10.9 °F 84% 30.26 in 10.0 mi NNW 13.8 mph - N/A   Mostly Cloudy
2:52 AM 12.9 °F -1.6 °F 9.0 °F 84% 30.28 in 10.0 mi NNW 12.7 mph - N/A   Clear
3:52 AM 10.0 °F 1.8 °F 8.1 °F 92% 30.29 in 10.0 mi NNW 4.6 mph - N/A   Clear
4:52 AM 9.0 °F 0.6 °F 6.1 °F 88% 30.29 in 10.0 mi NNW 4.6 mph - N/A   Clear
5:52 AM 7.0 °F -3.3 °F 3.9 °F 87% 30.35 in 10.0 mi NW 5.8 mph - N/A   Clear
6:52 AM 7.0 °F -3.3 °F 3.0 °F 84% 30.37 in 10.0 mi NW 5.8 mph - N/A   Clear
7:52 AM 8.1 °F -4.3 °F 3.9 °F 83% 30.38 in 10.0 mi NW 8.1 mph - N/A   Clear
8:52 AM 12.0 °F 1.5 °F 8.1 °F 84% 30.39 in 10.0 mi NW 6.9 mph - N/A   Clear
9:52 AM 17.1 °F 8.7 °F 12.0 °F 81% 30.40 in 10.0 mi NNW 5.8 mph - N/A   Clear
10:52 AM 21.0 °F 14.6 °F 16.0 °F 81% 30.40 in 10.0 mi NNW 4.6 mph - N/A   Clear
11:52 AM 24.1 °F 16.0 °F 18.0 °F 77% 30.39 in 10.0 mi NNE 6.9 mph - N/A   Scattered Clouds
12:48 PM 26.6 °F 21.2 °F 19.4 °F 74% 30.31 in 10.0 mi North 4.6 mph - N/A   Mostly Cloudy
12:52 PM 26.1 °F - 19.9 °F 78% 30.38 in 10.0 mi Calm Calm - N/A   Mostly Cloudy
1:17 PM 26.6 °F 21.2 °F 19.4 °F 74% 30.30 in 10.0 mi Variable 4.6 mph - N/A   Scattered Clouds
1:52 PM 27.0 °F 23.0 °F 19.9 °F 75% 30.36 in 10.0 mi NNE 3.5 mph - N/A   Partly Cloudy
2:52 PM 27.0 °F 23.0 °F 19.9 °F 75% 30.35 in 10.0 mi East 3.5 mph - N/A   Partly Cloudy
3:52 PM 26.1 °F 18.4 °F 19.0 °F 75% 30.35 in 10.0 mi ENE 6.9 mph - N/A   Clear
4:52 PM 23.0 °F 17.0 °F 18.0 °F 81% 30.37 in 10.0 mi ENE 4.6 mph - N/A   Clear
5:52 PM 19.0 °F 10.0 °F 16.0 °F 88% 30.36 in 10.0 mi East 6.9 mph - N/A   Clear
6:52 PM 17.1 °F 7.6 °F 14.0 °F 88% 30.35 in 10.0 mi East 6.9 mph - N/A   Clear
7:52 PM 15.1 °F 5.2 °F 12.9 °F 91% 30.35 in 10.0 mi ESE 6.9 mph - N/A   Clear
8:52 PM 14.0 °F 5.1 °F 12.0 °F 92% 30.35 in 10.0 mi SE 5.8 mph - N/A   Clear
9:52 PM 12.9 °F 3.8 °F 10.9 °F 92% 30.34 in 10.0 mi SE 5.8 mph - N/A   Clear
10:52 PM 14.0 °F - 12.9 °F 95% 30.33 in 8.0 mi Calm Calm - N/A   Mostly Cloudy
11:52 PM 12.9 °F 5.2 °F 10.9 °F 92% 30.33 in 8.0 mi South 4.6 mph - N/A   Mostly Cloudy